User: anonymous   Login
Location: Theydon Bois
(51.6750°N, 0.1050°E)
Time: 16:44:30
(UTC+01:00)
Language:

Gbstr 26 Del rocket - Orbit

View from above orbital plane
View from above orbital plane
View from above satellite
View from above satellite

Ground track
Ground track

The orbit data is extracted from the following two-line orbital elements,

1 25876U 99041E   18203.42257301 -.00000135 +00000-0 +19087-4 0  9998
2 25876 051.7622 177.5856 0531518 114.6415 251.0822 14.04224890970838
Epoch (UTC): 22 July 2018 10:08:30
Eccentricity: 0.0531518
inclination: 51.7622°
perigee height: 493 km
apogee height: 1265 km
right ascension of ascending node: 177.5856°
argument of perigee: 114.6415°
revolutions per day: 14.04224890
mean anomaly at epoch: 251.0822°
orbit number at epoch: 97083

The dashed part of the orbit path shows where the satellite is in the earth's shadow,  

DLR